Weather History for KNID - September, 2013

Change the Weather History Date:

Tuesday, September 17, 2013

  Actual Average (KDAG) Record (KDAG)
Temperature  
Mean Temperature 80 °F -  
Max Temperature 97 °F 93 °F - (-1)
Min Temperature 66 °F 65 °F - (-1)
Cooling Degree Days 16    
Growing Degree Days 30 (Base 50)    
Moisture  
Dew Point 34 °F    
Average Humidity 21    
Maximum Humidity 34    
Minimum Humidity 6    
Precipitation  
Precipitation 0.00 in - - ()
Sea Level Pressure  
Sea Level Pressure 29.66 in    
Wind  
Wind Speed 12 mph (SSW)    
Max Wind Speed 25 mph    
Max Gust Speed 33 mph    
Visibility 10 miles    
Events      
Averages and records for this station are not official NWS values.
T = Trace of Precipitation, MM = Missing Value Source: NWS Daily Summary

Daily Weather History Graph

Daily Weather History Graph

Search for Another Location

Airport or City:

Trip Planner

Search our weather history database for the weather conditions in past years. The results will help you decide how hot, cold, wet, or windy it might be!

Date:

Astronomy

Sep. 17, 2013 Rise Set
Actual Time 6:35 AM PDT 6:54 PM PDT
Civil Twilight 6:09 AM PDT 7:19 PM PDT
Nautical Twilight 5:39 AM PDT 7:49 PM PDT
Astronomical Twilight 5:09 AM PDT 8:20 PM PDT
Moon 5:43 PM PDT (9/17) 4:37 AM PDT (9/17)
Length of Visible Light 13h 10m
Length of Day
12h 19m
Waxing Gibbous, 96% of the Moon is Illuminated
Sep 17
Waxing Gibbous
Sep 19
Full
Sep 26
Last Quarter
Oct 4
New
Oct 11
First Quarter

Hourly Weather History & Observations

Time (PDT) Temp. Dew Point Humidity Pressure Visibility Wind Dir Wind Speed Gust Speed Precip Events Conditions
12:56 AM 77.0 °F 37.9 °F 24% 29.72 in 10.0 mi SE 6.9 mph - N/A   Unknown
1:56 AM 75.9 °F 36.0 °F 23% 29.72 in 10.0 mi SSW 6.9 mph - N/A   Unknown
2:56 AM 75.0 °F 33.1 °F 22% 29.71 in 10.0 mi SSW 10.4 mph - N/A   Unknown
3:56 AM 73.0 °F 37.9 °F 28% 29.71 in 10.0 mi South 11.5 mph - N/A   Unknown
4:56 AM 72.0 °F 39.0 °F 30% 29.71 in 10.0 mi SSE 3.5 mph - N/A   Unknown
5:56 AM 66.9 °F 37.9 °F 34% 29.72 in 10.0 mi SW 3.5 mph - N/A   Clear
6:56 AM 71.1 °F 39.0 °F 31% 29.73 in 10.0 mi WSW 11.5 mph 17.3 mph N/A   Clear
7:56 AM 73.9 °F 39.9 °F 29% 29.73 in 10.0 mi WSW 9.2 mph - N/A   Clear
8:56 AM 75.0 °F 37.0 °F 25% 29.73 in 10.0 mi NW 4.6 mph - N/A   Clear
9:56 AM 86.0 °F 37.0 °F 18% 29.71 in 10.0 mi South 10.4 mph 16.1 mph N/A   Clear
10:56 AM 89.1 °F 34.0 °F 14% 29.69 in 10.0 mi SSW 15.0 mph 21.9 mph N/A   Clear
11:56 AM 91.9 °F 30.9 °F 11% 29.67 in 10.0 mi South 19.6 mph 31.1 mph N/A   Clear
12:56 PM 93.9 °F 28.0 °F 10% 29.64 in 10.0 mi South 20.7 mph 32.2 mph N/A   Clear
1:56 PM 95.0 °F 26.1 °F 9% 29.61 in 10.0 mi South 21.9 mph 27.6 mph N/A   Clear
2:56 PM 95.0 °F 27.0 °F 9% 29.59 in 10.0 mi SSW 25.3 mph 33.4 mph N/A   Clear
3:56 PM 95.0 °F 18.0 °F 6% 29.58 in 10.0 mi SW 19.6 mph 26.5 mph N/A   Clear
4:56 PM 91.9 °F 24.1 °F 9% 29.58 in 10.0 mi SW 21.9 mph 29.9 mph N/A   Clear
5:56 PM 89.1 °F 28.9 °F 12% 29.59 in 10.0 mi SW 16.1 mph 26.5 mph N/A   Clear
6:56 PM 82.9 °F 30.0 °F 15% 29.60 in 10.0 mi SSW 17.3 mph 25.3 mph N/A   Clear
7:56 PM 80.1 °F 35.1 °F 20% 29.61 in 10.0 mi SSW 20.7 mph 27.6 mph N/A   Clear
8:56 PM 78.1 °F 41.0 °F 27% 29.63 in 10.0 mi South 13.8 mph 28.8 mph N/A   Clear
9:56 PM 75.9 °F 44.1 °F 32% 29.63 in 10.0 mi SW 18.4 mph 26.5 mph N/A   Unknown
10:56 PM 75.9 °F 43.0 °F 31% 29.62 in 10.0 mi SW 18.4 mph 27.6 mph N/A   Clear
11:56 PM 73.0 °F 39.0 °F 29% 29.64 in 10.0 mi South 10.4 mph - N/A   Unknown